Okinawa, Japan

9:31 PM JST on June 26, 2017 (GMT +0900)
Kadena Air Base

Weather History for RODN - November, 2012

Change the Weather History Date:

Friday, November 16, 2012

  Actual Average Record
Temperature  
Mean Temperature 64 °F -  
Max Temperature 74 °F 71 °F 86 °F (1998)
Min Temperature 54 °F 60 °F 54 °F (2012)
Degree Days  
Heating Degree Days 1    
Growing Degree Days 14 (Base 50)    
Moisture  
Dew Point 59 °F    
Average Humidity 79    
Maximum Humidity 99    
Minimum Humidity 62    
Precipitation  
Precipitation 0.00 in - - ()
Sea Level Pressure  
Sea Level Pressure 30.16 in    
Wind  
Wind Speed 7 mph ()    
Max Wind Speed 15 mph    
Max Gust Speed 21 mph    
Visibility 10.0 miles    
Events      
Averages and records for this station are not official NWS values.
T = Trace of Precipitation, MM = Missing Value Source: Averaged Metar Reports

Daily Weather History Graph

Daily Weather History Graph

Search for Another Location

Airport or City:

Trip Planner

Search our weather history database for the weather conditions in past years. The results will help you decide how hot, cold, wet, or windy it might be!

Date:

Astronomy

Nov. 16, 2012 Rise Set
Actual Time 6:48 AM JST 5:38 PM JST
Civil Twilight 6:23 AM JST 6:03 PM JST
Nautical Twilight 5:56 AM JST 6:31 PM JST
Astronomical Twilight 5:28 AM JST 6:58 PM JST
Moon 9:02 AM JST (11/16) 8:01 PM JST (11/16)
Length of Visible Light 11h 39m
Length of Day
10h 50m
Waxing Crescent, 7% of the Moon is Illuminated
Nov 16
Waxing Crescent
Nov 20
First Quarter
Nov 28
Full
Dec 7
Last Quarter
Dec 13
New

Hourly Weather History & Observations

Time (JST) Temp. Dew Point Humidity Pressure Visibility Wind Dir Wind Speed Gust Speed Precip Events Conditions
12:55 AM 56.1 °F 53.1 °F 89% 30.23 in 10.0 mi ENE 5.8 mph - N/A   Clear
1:55 AM 54.1 °F 52.3 °F 94% 30.22 in 10.0 mi NE 4.6 mph - N/A   Clear
2:55 AM 56.3 °F 53.6 °F 91% 30.20 in 10.0 mi ENE 6.9 mph - N/A   Clear
3:55 AM 54.5 °F 54.0 °F 98% 30.20 in 10.0 mi NE 5.8 mph - N/A   Clear
4:55 AM 55.4 °F 53.8 °F 94% 30.18 in 10.0 mi NE 6.9 mph - N/A   Clear
5:55 AM 54.5 °F 53.6 °F 97% 30.19 in 9.0 mi North 3.5 mph - N/A   Clear
6:55 AM 55.4 °F 54.1 °F 96% 30.21 in 10.0 mi NE 4.6 mph - N/A   Clear
7:55 AM 58.6 °F 58.5 °F 99% 30.23 in 10.0 mi ENE 5.8 mph - N/A   Clear
8:55 AM 66.9 °F 62.1 °F 84% 30.23 in 10.0 mi ENE 5.8 mph - N/A   Clear
9:55 AM 72.0 °F 60.3 °F 67% 30.24 in 10.0 mi ENE 11.5 mph - N/A   Partly Cloudy
10:55 AM 73.4 °F 60.8 °F 65% 30.22 in 10.0 mi ENE 11.5 mph - N/A   Mostly Cloudy
11:55 AM 74.1 °F 60.3 °F 62% 30.20 in 10.0 mi ESE 10.4 mph - N/A   Mostly Cloudy
12:55 PM 74.7 °F 60.8 °F 62% 30.17 in 10.0 mi East 13.8 mph - N/A   Clear
1:55 PM 73.4 °F 60.4 °F 64% 30.14 in 10.0 mi East 11.5 mph 19.6 mph N/A   Clear
2:55 PM 73.4 °F 60.8 °F 65% 30.12 in 10.0 mi East 15.0 mph - N/A   Scattered Clouds
3:55 PM 73.6 °F 61.3 °F 65% 30.11 in 10.0 mi ESE 13.8 mph - N/A   Partly Cloudy
4:55 PM 71.8 °F 62.1 °F 71% 30.10 in 10.0 mi East 13.8 mph 18.4 mph N/A   Scattered Clouds
5:55 PM 71.2 °F 62.2 °F 73% 30.09 in 10.0 mi ESE 10.4 mph - N/A   Mostly Cloudy
6:55 PM 71.2 °F 62.2 °F 73% 30.11 in 10.0 mi ESE 11.5 mph - N/A   Mostly Cloudy
7:55 PM 70.5 °F 62.4 °F 75% 30.10 in 10.0 mi ESE 12.7 mph - N/A   Mostly Cloudy
8:55 PM 71.6 °F 62.8 °F 74% 30.09 in 10.0 mi SE 10.4 mph - N/A   Overcast
9:55 PM 71.2 °F 63.5 °F 76% 30.07 in 10.0 mi SE 11.5 mph - N/A   Mostly Cloudy
10:55 PM 71.8 °F 64.8 °F 78% 30.06 in 10.0 mi SE 10.4 mph - N/A   Mostly Cloudy
11:55 PM 72.1 °F 64.9 °F 78% 30.03 in 10.0 mi SE 13.8 mph 20.7 mph N/A   Mostly Cloudy